• en France
  • Liste des pays
  • À 7 jours
  • Température de l'eau
  • Carte satellitaire
  • Carte météo
  • Widgets météo
  • user-avatar
    Se connecter

    Météo par heure à Man

    Ce jour, 27 Mai, Dimanche

    Heure Température Précipitation Vent Pression Humidité
    00:00 +24°C° 0,1 mm 1 m/s 726 mmHg 97%
    01:00 +24°C° 0,1 mm 1 m/s 726 mmHg 98%
    02:00 +24°C° 0,1 mm 1 m/s 725 mmHg 98%
    03:00 +24°C° 0,1 mm 1 m/s 726 mmHg 98%
    04:00 +24°C° 0,1 mm 1 m/s 726 mmHg 98%
    05:00 +24°C° 0,1 mm 1 m/s 726 mmHg 97%
    06:00 +25°C° 0 mm 1 m/s 726 mmHg 94%
    07:00 +26°C° 0 mm 1 m/s 727 mmHg 91%
    08:00 +26°C° 0 mm 1 m/s 727 mmHg 88%
    09:00 +28°C° 0 mm 1 m/s 727 mmHg 78%
    10:00 +30°C° 0 mm 1 m/s 727 mmHg 69%
    11:00 +32°C° 0 mm 1 m/s 727 mmHg 59%
    12:00 +33°C° 0,3 mm 1 m/s 726 mmHg 57%
    13:00 +33°C° 0,3 mm 1 m/s 725 mmHg 55%
    14:00 +34°C° 0,3 mm 1 m/s 725 mmHg 53%
    15:00 +32°C° 1,2 mm 1 m/s 725 mmHg 63%
    16:00 +30°C° 1,2 mm 1 m/s 725 mmHg 72%
    17:00 +29°C° 1,2 mm 1 m/s 725 mmHg 82%
    18:00 +27°C° 1,9 mm 2 m/s 725 mmHg 86%
    19:00 +26°C° 1,9 mm 2 m/s 726 mmHg 90%
    20:00 +25°C° 1,9 mm 2 m/s 726 mmHg 94%
    21:00 +25°C° 0,1 mm 2 m/s 727 mmHg 95%
    22:00 +25°C° 0,1 mm 2 m/s 727 mmHg 96%
    23:00 +24°C° 0,1 mm 2 m/s 727 mmHg 97%

    Demain, 28 Mai, Lundi

    Heure Température Précipitation Vent Pression Humidité
    00:00 +24°C° 0,2 mm 1 m/s 727 mmHg 97%
    01:00 +24°C° 0,2 mm 1 m/s 726 mmHg 97%
    02:00 +24°C° 0,2 mm 1 m/s 726 mmHg 97%
    03:00 +24°C° 0 mm 1 m/s 726 mmHg 97%
    04:00 +24°C° 0 mm 1 m/s 726 mmHg 98%
    05:00 +24°C° 0 mm 1 m/s 726 mmHg 98%
    06:00 +24°C° 0,2 mm 1 m/s 727 mmHg 96%
    07:00 +25°C° 0,2 mm 1 m/s 727 mmHg 94%
    08:00 +26°C° 0,2 mm 1 m/s 727 mmHg 92%
    09:00 +26°C° 1,6 mm 1 m/s 727 mmHg 91%
    10:00 +27°C° 1,6 mm 1 m/s 728 mmHg 90%
    11:00 +26°C° 1,6 mm 0 m/s 728 mmHg 89%
    12:00 +25°C° 1,9 mm 0 m/s 727 mmHg 91%
    13:00 +24°C° 1,9 mm 0 m/s 726 mmHg 93%
    14:00 +24°C° 1,9 mm 0 m/s 726 mmHg 95%
    15:00 +24°C° 0,3 mm 0 m/s 726 mmHg 94%
    16:00 +24°C° 0,3 mm 0 m/s 725 mmHg 94%
    17:00 +26°C° 0,3 mm 1 m/s 725 mmHg 93%
    18:00 +25°C° 0 mm 1 m/s 726 mmHg 95%
    19:00 +25°C° 0 mm 1 m/s 727 mmHg 96%
    20:00 +24°C° 0 mm 1 m/s 727 mmHg 98%
    21:00 +24°C° 0 mm 1 m/s 727 mmHg 98%
    22:00 +24°C° 0 mm 1 m/s 727 mmHg 98%
    23:00 +23°C° 0 mm 1 m/s 727 mmHg 98%

    Après-demain, 29 Mai, Mardi

    Heure Température Précipitation Vent Pression Humidité
    00:00 +23°C° 0 mm 1 m/s 727 mmHg 98%
    01:00 +23°C° 0 mm 1 m/s 726 mmHg 99%
    02:00 +23°C° 0 mm 1 m/s 726 mmHg 99%
    03:00 +23°C° 0,1 mm 1 m/s 726 mmHg 98%
    04:00 +21°C° 0,1 mm 0 m/s 726 mmHg 98%
    05:00 +22°C° 0,1 mm 0 m/s 726 mmHg 98%
    06:00 +22°C° 0,1 mm 0 m/s 727 mmHg 96%
    07:00 +23°C° 0,1 mm 0 m/s 728 mmHg 94%
    08:00 +23°C° 0,1 mm 0 m/s 728 mmHg 92%
    09:00 +25°C° 0,1 mm 0 m/s 728 mmHg 86%
    10:00 +26°C° 0,1 mm 0 m/s 728 mmHg 79%
    11:00 +27°C° 0,1 mm 0 m/s 728 mmHg 73%
    12:00 +28°C° 0 mm 0 m/s 727 mmHg 68%
    13:00 +31°C° 0 mm 1 m/s 726 mmHg 63%
    14:00 +32°C° 0 mm 1 m/s 725 mmHg 58%
    15:00 +32°C° 0 mm 1 m/s 725 mmHg 61%
    16:00 +29°C° 0 mm 0 m/s 725 mmHg 64%
    17:00 +28°C° 0 mm 0 m/s 725 mmHg 67%
    18:00 +26°C° 0,2 mm 0 m/s 725 mmHg 73%
    19:00 +25°C° 0,2 mm 0 m/s 726 mmHg 78%
    20:00 +23°C° 0,2 mm 0 m/s 726 mmHg 84%
    21:00 +23°C° 0,5 mm 0 m/s 727 mmHg 86%
    22:00 +25°C° 0,5 mm 1 m/s 727 mmHg 88%
    23:00 +24°C° 0,5 mm 1 m/s 727 mmHg 91%

    30 Mai, Mercredi

    Heure Température Précipitation Vent Pression Humidité
    00:00 +24°C° 0 mm 1 m/s 726 mmHg 92%
    01:00 +24°C° 0 mm 1 m/s 726 mmHg 93%
    02:00 +24°C° 0 mm 1 m/s 725 mmHg 95%
    03:00 +24°C° 0 mm 1 m/s 725 mmHg 96%
    04:00 +24°C° 0 mm 1 m/s 726 mmHg 96%
    05:00 +23°C° 0 mm 1 m/s 726 mmHg 97%
    06:00 +25°C° 0 mm 1 m/s 726 mmHg 93%
    07:00 +26°C° 0 mm 1 m/s 727 mmHg 88%
    08:00 +27°C° 0 mm 1 m/s 727 mmHg 83%
    09:00 +29°C° 0 mm 1 m/s 727 mmHg 74%
    10:00 +31°C° 0 mm 1 m/s 727 mmHg 64%
    11:00 +33°C° 0 mm 1 m/s 726 mmHg 54%
    12:00 +34°C° 0,2 mm 1 m/s 726 mmHg 52%
    13:00 +35°C° 0,2 mm 1 m/s 725 mmHg 51%
    14:00 +35°C° 0,2 mm 1 m/s 724 mmHg 49%
    15:00 +34°C° 0,6 mm 1 m/s 724 mmHg 56%
    16:00 +32°C° 0,6 mm 1 m/s 724 mmHg 63%
    17:00 +30°C° 0,6 mm 1 m/s 724 mmHg 70%
    18:00 +29°C° 1,2 mm 1 m/s 725 mmHg 77%
    19:00 +27°C° 1,2 mm 1 m/s 725 mmHg 84%
    20:00 +26°C° 1,2 mm 1 m/s 726 mmHg 90%
    21:00 +25°C° 0,2 mm 1 m/s 726 mmHg 92%
    22:00 +25°C° 0,2 mm 1 m/s 726 mmHg 94%
    23:00 +25°C° 0,2 mm 1 m/s 726 mmHg 96%

    31 Mai, Jeudi

    Heure Température Précipitation Vent Pression Humidité
    00:00 +25°C° 0,1 mm 1 m/s 726 mmHg 96%
    01:00 +24°C° 0,1 mm 1 m/s 725 mmHg 97%
    02:00 +24°C° 0,1 mm 1 m/s 725 mmHg 98%
    03:00 +24°C° 0 mm 1 m/s 725 mmHg 98%
    04:00 +24°C° 0 mm 1 m/s 726 mmHg 98%
    05:00 +24°C° 0 mm 1 m/s 726 mmHg 98%
    06:00 +25°C° 0,1 mm 1 m/s 726 mmHg 95%
    07:00 +25°C° 0,1 mm 1 m/s 727 mmHg 92%
    08:00 +26°C° 0,1 mm 1 m/s 727 mmHg 89%
    09:00 +27°C° 0 mm 1 m/s 727 mmHg 82%
    10:00 +29°C° 0 mm 1 m/s 727 mmHg 74%
    11:00 +30°C° 0 mm 1 m/s 727 mmHg 67%
    12:00 +31°C° 0 mm 1 m/s 726 mmHg 66%
    13:00 +31°C° 0 mm 1 m/s 726 mmHg 65%
    14:00 +31°C° 0 mm 1 m/s 725 mmHg 64%
    15:00 +31°C° 0 mm 1 m/s 725 mmHg 66%
    16:00 +30°C° 0 mm 1 m/s 725 mmHg 69%
    17:00 +30°C° 0 mm 1 m/s 725 mmHg 72%
    18:00 +28°C° 0 mm 1 m/s 726 mmHg 77%
    19:00 +27°C° 0 mm 1 m/s 727 mmHg 82%
    20:00 +26°C° 0 mm 1 m/s 727 mmHg 87%
    21:00 +25°C° 0,5 mm 1 m/s 727 mmHg 89%
    22:00 +25°C° 0,5 mm 1 m/s 727 mmHg 92%
    23:00 +25°C° 0,5 mm 1 m/s 727 mmHg 94%

    1 Juin, Vendredi

    Heure Température Précipitation Vent Pression Humidité
    00:00 +24°C° 0 mm 1 m/s 726 mmHg 95%
    01:00 +24°C° 0 mm 1 m/s 726 mmHg 96%
    02:00 +24°C° 0 mm 1 m/s 726 mmHg 97%
    03:00 +24°C° 0 mm 1 m/s 726 mmHg 98%
    04:00 +24°C° 0 mm 1 m/s 726 mmHg 98%
    05:00 +22°C° 0 mm 0 m/s 727 mmHg 98%
    06:00 +25°C° 0 mm 1 m/s 727 mmHg 94%
    07:00 +26°C° 0 mm 1 m/s 728 mmHg 89%
    08:00 +27°C° 0 mm 1 m/s 728 mmHg 84%
    09:00 +29°C° 0 mm 1 m/s 728 mmHg 77%
    10:00 +30°C° 0 mm 1 m/s 727 mmHg 70%
    11:00 +32°C° 0 mm 1 m/s 727 mmHg 63%
    12:00 +32°C° 0,1 mm 1 m/s 726 mmHg 63%
    13:00 +32°C° 0,1 mm 1 m/s 726 mmHg 62%
    14:00 +33°C° 0,1 mm 1 m/s 725 mmHg 62%
    15:00 +32°C° 0,5 mm 1 m/s 725 mmHg 65%
    16:00 +31°C° 0,5 mm 1 m/s 725 mmHg 68%
    17:00 +30°C° 0,5 mm 1 m/s 725 mmHg 71%
    18:00 +29°C° 0,7 mm 1 m/s 726 mmHg 77%
    19:00 +27°C° 0,7 mm 1 m/s 727 mmHg 83%
    20:00 +26°C° 0,7 mm 1 m/s 727 mmHg 89%
    21:00 +25°C° 0,8 mm 1 m/s 727 mmHg 92%
    22:00 +25°C° 0,8 mm 1 m/s 727 mmHg 94%
    23:00 +24°C° 0,8 mm 1 m/s 727 mmHg 97%
    Voir plus